Location: Gaspur (historical)
(33.7814°N, 118.2212°W)
Time: 08:56:34
(UTC+00:00)

FENGYUN 3A - Pass Details

Date: 29 October 2020
Orbit: 824 x 835 km, 98.4° (Epoch: 26 November)

Event Time Altitude Azimuth Distance (km) Brightness Sun altitude
Rises 12:35:18 0° 9° (N) 3,389 6.9 -20.2°
Reaches altitude 10° 12:37:40 10° 8° (N) 2,452 6.2 -19.7°
Maximum altitude 12:43:04 71° 285° (WNW) 882 3.6 -18.6°
Drops below altitude 10° 12:48:27 10° 202° (SSW) 2,435 5.9 -17.5°
Sets 12:50:48 0° 200° (SSW) 3,364 6.7 -17.0°
